Please be sure to check the latest weather conditions by clicking the link and viewing our local weather information!

Check Weather

Welcome to Lakeway Airpark (3R9)

FromTheAir

We’re a community airpark nestled within the town of Lakeway, Texas (17 miles northwest of downtown Austin).

Lakeway Airpark, Inc. was formed by Lakeway residents and interested parties to own and manage Lakeway Airpark (3R9).

The Airpark is a privately owned not for profit public use airport for residents and guests of Lakeway. No public funds are used and the airport is supported by fees and fuel sales at the airport.

Lakeway Airpark is an unmanned facility open for use from Sunrise to Sunset seven days a week. Takeoffs and landings are not permitted at night, between Sunset and Sunrise, by City Ordinance.

Quick Weather Info

Available data for KAUS from the past 2 hours
AUSTIN, TX
Metar
KAUS 220153Z 15011KT 10SM FEW060 SCT095 29/21 A2999 RMK AO2 SLP143 T02940211 $

01:53 UTC

Wind: 150° 11kt

Visibility: 10 SM

Sky: FEW 6000 ft

Temp: 29 deg C / 84.2 deg F

Dewpoint: 21 deg C / 69.8 deg F

Pressure: 29.99 inHg

TAF
KAUS 212320Z 2200/2306 14011KT P6SM VCSH SCT060 SCT250 FM220100 14010KT P6SM FEW030 SCT250 FM220600 15007KT P6SM BKN012 BKN025 FM221600 18010KT P6SM OVC030 FM221900 16009KT P6SM SCT040 BKN120